Вернуться в каталог

ISIS 1 DEB

АктивенPO
NORAD 31999·DEBRIS·🇨🇦 Canada

Запущен Jan 30, 1969 с Vandenberg Space Force Base

Loading…

Ближайшие Пролёты (ближайшие 24 часа)

TLE

СвежийSource: Space-Track

Эпоха: Sep 13, 2026, 11:16 UTC

1 31999U 69009C   26256.47013869  .00006167  00000-0  30452-2 0  9990
2 31999  88.3779  79.5215 1213883 268.3179  77.8851 12.37444036819813

Отслеживайте ISIS 1 DEB в реальном времени с AllMySat

Download on the App Store